{"data":{"norad_id":47824,"intl_designator":"2021-018AP","name":"STARLINK-2409","alt_names":[],"object_type":"PAYLOAD","status":"ACTIVE","operator":null,"country":"US","launch_date":"2021-03-11","launch_site_code":"AFETR","launch_vehicle":null,"mission":null,"orbit_class":"UNKNOWN","rcs_meters":null,"size_class":null,"mass_kg":null,"dimensions":null,"purposes":["comms"],"wikipedia_slug":null,"has_3d_model":false,"image_url":null,"decayed_at":null,"tle_current":{"epoch":"2026-09-20T04:25:39.572256Z","epoch_age_seconds":56509,"freshness":"FRESH","line1":"1 47824U 21018AP  26263.18448579  .00015755  00000+0  51935-3 0  9990","line2":"2 47824  53.1597  73.5748 0001489  92.0830 268.0342 15.31639455306281","mean_motion":15.31639455,"eccentricity":0.0001489,"inclination_deg":53.1597,"raan_deg":73.5748,"arg_perigee_deg":92.083,"mean_anomaly_deg":268.0342,"bstar":0.00051935,"rev_number":30628,"period_min":94.016904258973,"perigee_km":469.90065800624,"apogee_km":471.94030732456997,"semimajor_km":6849.0574826654,"source":"CELESTRAK","updated_at":"2026-09-20T09:00:38.750213Z"}}}